Weather in Zakupnoe

Ukraine / Khmelnitsky District     49°07′10″N   26°20′15″E
temp.,
°C
wind,
m/s
gust,
m/s
humid.,
%
clouds,
%
prec.,
mm/h
press.,
hPa
HPBL,
m
12 april, mon
mon1200:00+7se4115587 0.0 1025218
03:00+5se411575 0.0 1024189
06:00+4se39605 0.0 1024144
09:00+8se485011 0.0 1023312
12:00+13sse453781 0.0 1022739
15:00+16sse333454 0.0 10201133
18:00+16sse33353 0.0 10191061
21:00+12se22465 0.0 102018
13 april, tue
tue1300:00+10se22515 0.0 102019
03:00+9sse22535 0.0 101910
06:00+8e22565 0.0 102012
09:00+11sse125025 0.0 1020193
12:00+16sse2239100 0.0 1018980
15:00+18ese2236100 0.0 10161766
18:00+17e3342100 0.0 10151388
21:00+11se5968100 0.0 1016336
14 april, wed
wed1400:00+10sse3771100 0.0 1015353
03:00+10s2476100 0.0 1015277
06:00+9ssw1381100 0.0 1014221
09:00+8sw2388100 0.8 1014329
12:00+8w2284100 0.8 1014382
15:00+9w1180100 1.0 1014469
18:00+8wnw4484100 0.1 1014452
21:00+6nnw4691100 1.6 1015446
15 april, thu
thu1500:00+4nw5693100 0.9 1015393
03:00+3wnw4596100 1.8 1015359
06:00+2wnw4698100 0.7 1015340
09:00+2nw3699100 1.4 1016341
12:00+3wnw3698100 0.5 1017408
15:00+4nw5693100 0.6 1017636
18:00+3nw5895100 0.1 1017616
21:00+3nw4897100 0.1 1018489
16 april, fri
fri1600:00+2nw4899100 0.1 1018435
03:00+2wnw4999100 0.3 1018397
06:00+1wnw5997100 0.1 1017443
09:00+2wnw5896100 0.1 1018566
12:00+3nw6993100 0.1 1019570
15:00+5nw7886100 0.1 1019672
18:00+3nw61194100 0.4 1020486
21:00+3wnw61297100 0.4 1021371